Wind_Speed
7 7 7 8 8 8 9 9 9 9 9 9 8 8 7 7 6 6 6 7 7 7 8 9 10 10 10 10 10 11 11 11 11 10 9 9 10 11 11 12 12 11 11 11 10 10 10 11 13 14 14 14 15 17 17 17 17 17 15 14 14 14 15 15 14 13 12 11 11
8 8 8 8 8 8 8 8 8 8 8 8 8 7 6 5 4 4 4 4 4 5 5 5 6 6 6 7 7 8 9 9 10 10 9 9 10 10 11 11 11 10 10 10 10 10 10 12 13 13 13 13 13 14 15 16 17 17 16 16 15 15 15 14 12 11 11 11 12
8 8 9 8 8 8 7 7 7 7 7 6 6 6 5 4 3 3 2 1 1 2 2 3 3 3 3 4 4 4 6 7 8 9 9 9 9 10 10 10 10 10 10 10 10 10 10 11 11 11 11 11 12 14 15 16 17 17 16 16 15 14 13 12 12 11 11 11 12
8 8 8 8 7 7 6 6 6 5 5 5 5 5 5 4 3 2 1 2 3 4 5 5 5 5 4 4 3 2 2 4 5 7 8 8 9 9 10 10 11 11 10 10 9 9 9 8 8 9 10 11 12 13 15 16 16 16 15 14 13 12 12 12 11 11 11 11 11
7 7 7 7 6 6 5 4 4 3 3 3 3 3 3 3 3 3 4 4 6 7 7 8 8 7 7 6 5 4 3 2 0 2 3 5 6 6 7 7 7 6 6 5 5 5 6 6 6 7 8 8 9 10 11 13 13 13 13 12 11 11 11 11 11 10 10 10 10
7 7 6 6 5 4 4 3 2 2 2 2 2 3 3 3 4 5 6 6 7 7 7 8 9 9 8 8 8 8 8 8 8 7 6 5 4 4 4 4 4 3 2 1 1 2 4 4 4 4 4 4 5 6 7 8 9 10 10 9 8 8 8 9 8 8 7 7 7
6 6 5 5 4 3 2 2 2 2 3 4 4 5 5 6 6 7 7 7 7 7 7 7 8 8 8 8 9 9 10 10 10 10 9 8 8 7 6 5 4 3 2 2 1 1 1 0 1 1 2 3 4 5 5 5 5 6 6 5 5 5 5 6 5 5 4 4 4
6 5 4 4 3 2 2 1 2 3 4 5 6 6 7 8 7 7 6 6 6 6 6 6 6 6 6 6 7 7 7 7 7 6 6 5 5 4 4 3 3 2 2 2 2 2 2 2 2 2 3 4 4 5 4 3 2 3 4 4 4 4 4 4 4 3 3 3 3
5 4 4 4 3 2 1 1 2 3 3 4 5 6 7 7 6 6 6 6 6 6 6 6 5 4 4 4 5 5 5 5 5 4 3 2 2 1 1 0 0 1 2 2 1 1 1 3 4 5 5 5 4 4 3 2 2 2 3 4 5 5 5 4 4 4 4 5 5
4 4 4 3 3 2 1 1 1 2 2 3 4 4 5 5 5 5 6 6 5 5 5 6 5 4 4 5 5 6 6 5 4 3 2 2 1 2 2 3 3 5 5 5 5 4 3 3 4 5 5 5 4 3 2 1 2 2 3 4 5 5 5 5 5 5 5 6 5
5 4 4 3 3 2 1 1 1 1 2 2 3 3 3 4 5 5 5 5 4 5 5 5 5 5 5 6 6 7 7 6 5 4 3 2 1 0 1 2 3 4 5 6 6 5 4 3 3 4 4 4 3 2 2 2 3 3 3 4 5 5 6 5 5 5 5 4 4
5 5 4 4 3 2 2 2 2 2 2 2 2 3 3 4 5 5 5 4 4 5 6 5 5 5 5 7 7 8 8 7 6 5 4 3 3 2 1 1 1 3 4 5 5 4 4 4 4 4 4 4 4 4 4 4 5 5 5 5 6 6 6 5 4 3 3 3 3
5 5 5 4 3 3 3 3 3 2 2 2 2 2 3 4 4 4 4 4 5 5 5 5 5 5 6 7 7 8 8 7 7 6 5 5 5 4 4 3 3 3 5 5 4 4 5 5 5 5 5 5 5 6 6 6 6 6 6 5 5 5 5 4 4 4 4 4 4
5 5 4 4 4 4 4 3 3 2 2 2 2 2 3 4 4 4 4 4 5 5 5 4 4 5 5 6 6 6 6 6 6 5 5 5 4 4 4 4 4 5 6 6 5 5 6 7 7 7 7 7 7 7 7 6 5 4 3 3 4 5 6 6 7 6 6 5 5
4 4 4 4 4 4 4 3 3 2 2 3 3 3 3 4 4 3 4 4 4 4 4 4 4 4 4 5 5 5 5 5 5 4 4 4 4 4 4 5 5 6 7 7 7 7 7 8 7 8 8 8 8 7 6 5 4 4 4 6 8 9 9 9 8 7 6 7 7
3 3 3 3 3 3 3 2 2 2 2 3 3 3 3 3 3 3 4 4 3 2 3 3 3 3 3 4 4 4 4 4 4 4 3 4 4 4 5 5 6 6 7 7 7 8 7 7 7 7 7 7 6 6 6 6 6 7 8 10 11 11 11 10 9 8 8 8 10
1 1 1 1 1 2 2 1 1 2 2 3 3 3 2 1 1 3 4 3 2 2 2 3 3 3 2 3 3 3 3 3 3 3 3 4 4 4 4 5 5 5 5 5 6 6 6 6 6 5 5 6 6 7 8 9 9 10 11 12 12 12 12 11 10 10 10 11 12
0 1 2 2 2 1 1 1 1 2 2 2 2 0 1 1 2 2 2 2 2 2 2 3 3 3 3 2 2 2 2 2 2 2 3 3 3 3 3 3 3 3 3 3 4 4 5 4 4 4 5 6 7 9 10 11 12 12 13 13 13 13 13 13 12 12 12 12 12
1 2 3 4 4 4 3 2 2 2 2 2 1 1 2 2 2 2 1 2 2 2 2 2 2 2 2 2 2 2 2 2 2 3 3 3 2 2 3 3 3 4 4 4 5 5 5 5 5 5 7 8 10 11 12 12 13 14 15 15 15 15 14 14 14 13 12 12 11
3 3 4 4 4 3 3 2 3 3 3 2 2 1 2 2 1 1 2 2 2 1 1 1 2 2 2 2 2 2 2 2 3 3 4 3 3 4 5 5 6 6 6 7 7 8 8 7 7 8 9 10 11 12 12 13 14 15 15 16 15 15 15 15 14 13 12 12 12
4 5 5 4 3 2 1 2 3 3 3 2 2 2 2 2 1 2 2 3 2 1 1 2 2 3 3 3 3 3 4 3 4 5 5 5 5 6 7 7 7 8 8 9 9 10 9 9 9 10 11 11 12 12 12 13 14 15 15 15 15 15 14 14 14 14 14 14 14
4 4 4 3 2 1 1 2 2 2 2 2 2 2 3 3 3 3 3 3 3 3 3 3 4 4 5 5 6 5 5 6 7 8 8 8 8 8 8 7 8 8 9 10 10 10 10 10 10 11 12 12 12 13 13 13 14 14 14 14 14 14 14 13 13 14 14 15 15
3 2 1 1 0 1 1 1 1 1 2 2 2 3 4 5 5 5 5 4 4 4 4 5 6 7 8 8 8 8 9 10 10 10 11 11 12 12 11 10 10 11 11 10 10 10 11 12 12 12 13 13 14 14 14 14 14 14 15 15 15 15 15 15 14 14 14 14 14
2 2 2 2 2 2 3 3 3 3 3 3 4 5 6 6 6 5 5 5 5 6 6 7 8 9 11 11 12 12 12 13 13 14 14 15 15 15 14 14 14 14 14 12 12 11 12 13 13 14 14 14 15 15 14 14 15 15 16 17 17 17 16 15 14 13 13 13 13
3 3 4 4 4 4 4 5 5 6 6 6 6 6 7 7 6 6 7 7 8 8 8 9 11 13 14 15 14 14 14 14 15 16 17 17 16 16 15 15 15 15 15 14 13 13 13 13 14 14 15 16 16 16 16 16 16 16 17 17 16 16 15 14 13 12 12 11 11
4 4 4 4 4 5 5 6 7 7 7 7 7 7 7 7 8 8 9 10 11 11 12 13 15 15 15 16 15 15 15 15 16 17 17 17 16 16 16 16 16 15 14 13 13 13 13 13 13 14 15 16 17 18 18 17 17 17 16 16 15 14 13 13 12 11 11 10 10
5 4 4 3 4 5 6 7 7 7 7 7 7 7 7 8 9 11 12 13 14 15 16 16 16 16 16 15 15 15 16 16 16 17 17 17 17 17 16 16 15 15 14 13 12 12 13 13 13 13 14 15 17 18 18 17 17 16 15 14 13 13 12 12 11 10 9 9 8
5 4 3 3 5 6 7 7 8 8 8 7 7 7 7 9 11 12 13 14 15 16 16 17 16 16 16 16 16 16 16 16 17 17 17 17 17 17 17 16 15 14 13 12 12 12 12 13 13 13 13 15 16 17 18 17 16 15 14 13 12 12 11 10 9 8 7 6 6
5 4 4 4 5 6 7 9 9 9 8 8 7 7 8 11 12 13 14 14 15 15 16 16 16 16 16 16 16 17 17 17 17 17 17 17 17 17 16 16 15 14 13 12 12 12 13 13 13 14 14 14 15 16 16 16 15 14 13 12 11 10 9 8 7 6 6 5 4
5 5 5 5 6 7 9 10 10 9 9 8 7 8 10 11 13 13 14 14 14 15 15 16 16 16 16 16 17 17 17 17 17 17 17 17 17 16 16 15 15 14 13 13 13 13 13 13 14 14 14 14 14 14 14 14 14 13 12 11 10 9 8 7 6 6 6 5 4
5 5 6 7 8 9 10 10 10 9 9 9 8 9 11 13 13 14 13 13 13 14 15 15 16 16 16 16 16 17 17 17 16 16 17 17 17 16 16 15 14 14 13 13 12 12 12 12 13 13 13 13 13 13 12 12 12 11 10 9 8 8 7 6 6 6 5 5 5
5 6 7 8 9 10 11 11 11 10 10 10 10 11 12 13 13 13 12 12 12 13 13 14 14 15 15 15 15 15 15 15 15 16 16 17 17 16 16 15 14 13 13 12 12 11 11 11 12 12 12 12 12 11 11 10 10 9 9 8 8 7 6 5 5 5 4 4 4
6 7 8 10 11 11 11 11 11 11 11 11 11 11 12 12 12 12 11 11 11 11 12 12 13 13 13 13 14 14 14 14 15 15 15 16 16 16 15 15 14 13 12 12 11 11 11 11 11 11 11 11 11 10 10 9 9 8 8 7 7 6 5 5 4 4 4 3 3
7 8 9 11 11 12 12 12 11 11 12 12 11 11 11 11 11 11 10 9 9 9 10 11 12 12 13 13 13 14 14 14 15 15 15 16 16 16 15 15 13 12 12 11 11 11 11 11 11 11 10 10 10 9 9 8 8 8 8 8 7 6 6 5 4 4 3 3 3
8 10 11 11 12 12 12 12 12 12 12 12 11 10 10 9 9 8 8 7 8 8 10 11 12 12 13 13 13 14 14 15 15 15 15 15 15 16 15 15 13 12 12 12 12 11 11 11 10 10 10 10 9 9 9 9 9 9 9 8 8 7 7 6 6 5 5 4 4
9 10 11 12 12 12 12 12 12 12 11 11 11 10 9 8 7 6 6 6 7 9 10 11 12 12 13 13 13 14 15 15 15 14 14 14 14 15 15 15 14 12 11 11 11 11 11 11 11 10 10 10 9 9 9 9 9 9 9 9 9 9 8 8 7 7 7 7 7
9 10 11 12 12 13 13 12 12 11 11 10 9 9 8 7 6 6 6 6 7 8 10 11 12 13 13 13 13 14 14 14 14 13 13 13 14 15 15 15 15 13 12 11 11 11 11 11 11 10 10 9 9 9 9 9 9 9 9 9 9 9 9 8 8 8 8 8 9
8 10 11 12 12 13 12 12 11 10 10 9 9 8 8 7 6 6 6 5 6 7 9 12 13 13 13 13 13 13 13 13 13 13 13 14 14 14 15 15 15 14 12 11 10 11 11 10 10 9 9 9 9 8 8 8 8 8 8 8 8 9 8 8 8 8 8 8 9
7 9 11 12 12 12 12 11 10 9 9 9 9 9 8 8 6 5 5 4 5 7 9 12 13 13 13 13 13 13 13 13 13 14 14 14 14 14 14 14 14 14 12 11 9 9 9 9 9 9 8 8 8 8 8 7 7 7 7 7 7 7 7 7 7 7 7 7 8
7 8 10 11 12 11 11 11 10 9 8 8 9 9 9 8 6 5 4 5 5 7 9 11 13 13 13 14 14 14 14 14 14 14 13 13 13 13 12 12 12 12 11 10 8 8 8 8 8 8 8 8 8 8 7 7 6 6 6 6 5 5 5 5 5 5 5 5 6
6 8 9 11 11 10 10 10 10 9 8 8 8 9 9 8 6 5 5 5 6 8 10 12 13 14 14 14 14 14 14 14 14 13 13 12 11 11 11 11 11 11 11 9 7 6 6 7 7 8 8 8 8 7 6 6 5 5 5 4 4 3 3 3 3 3 3 4 4
Wind_Direction
307 311 314 315 315 314 312 309 307 304 301 296 289 285 282 282 281 285 286 286 283 282 282 281 279 279 279 277 272 265 259 254 250 247 243 239 234 228 220 214 211 211 211 211 213 219 228 235 236 235 231 224 223 224 224 224 225 226 229 235 240 243 244 244 246 248 251 253 255
306 309 310 311 311 310 308 304 302 299 295 289 281 273 268 265 268 280 288 290 292 294 294 294 295 294 291 285 276 266 257 251 247 243 240 235 229 221 215 211 210 211 212 214 220 227 233 235 234 232 230 228 221 219 221 224 225 226 228 233 237 240 241 241 243 246 247 249 251
309 308 308 307 306 303 300 295 291 288 284 279 271 262 254 247 248 257 279 314 338 350 355 356 348 338 328 314 295 276 261 251 245 241 237 232 227 221 216 214 215 218 221 225 227 229 228 224 221 221 224 229 229 226 224 223 223 224 226 229 233 236 238 238 240 241 241 242 242
312 309 307 304 300 295 290 284 280 275 270 266 259 251 241 233 224 208 140 84 75 67 60 49 40 30 20 9 354 327 285 258 246 240 236 233 229 226 224 225 226 227 229 231 227 221 215 213 215 220 227 233 231 224 219 218 219 220 220 221 223 225 227 228 230 232 232 231 230
315 312 309 304 298 291 283 275 264 255 249 248 240 231 222 208 179 144 118 100 85 74 68 63 57 52 47 42 39 40 43 52 124 199 213 219 222 223 222 220 219 217 216 215 214 218 221 225 234 237 233 227 221 215 213 214 213 211 208 208 207 209 212 215 220 224 224 221 218
315 316 313 306 298 287 274 258 235 212 198 192 185 175 159 144 132 122 111 100 91 84 78 75 71 69 66 64 65 68 71 75 81 88 96 106 115 124 126 125 124 119 109 92 268 256 252 248 245 240 231 219 203 196 195 198 199 198 197 193 195 200 206 210 215 216 213 206 200
315 315 311 302 294 282 260 233 200 169 151 142 136 127 120 117 115 113 109 107 104 99 92 87 82 78 77 76 76 76 74 73 73 75 77 78 80 79 76 68 58 45 29 19 20 42 65 95 184 214 222 210 175 159 155 167 186 200 205 200 202 205 205 203 202 196 185 181 183
313 308 300 293 286 272 242 197 164 146 136 128 121 115 110 109 108 108 108 109 103 93 85 82 77 73 71 70 69 66 61 53 49 48 48 47 48 47 42 31 23 30 49 60 63 69 76 84 115 153 173 180 161 146 141 159 205 225 220 206 202 202 198 188 182 179 184 198 212
302 293 284 281 274 257 226 182 153 138 127 121 115 110 107 103 100 98 94 87 78 73 69 67 64 59 56 55 53 52 49 42 34 24 14 6 2 7 12 32 86 106 107 112 115 111 99 103 120 136 150 165 161 151 148 164 194 201 194 184 179 181 187 192 199 211 225 232 232
280 273 268 263 256 248 229 200 171 144 122 111 108 105 101 97 90 82 73 67 64 64 63 61 56 55 55 56 56 56 56 54 52 52 58 72 78 91 106 114 117 118 119 120 123 123 119 118 124 129 135 139 138 135 136 155 174 181 180 178 177 175 179 195 210 218 223 224 220
257 254 250 245 240 236 224 199 173 149 122 105 97 90 85 78 70 63 59 54 53 56 56 52 47 45 44 43 45 46 49 50 52 52 51 44 35 66 126 130 130 130 131 131 130 132 135 141 146 147 148 154 166 192 224 240 234 223 211 201 200 192 185 189 203 208 206 204 202
243 240 237 233 229 220 207 188 173 151 124 102 88 75 67 59 56 52 47 39 39 46 49 46 42 38 34 33 35 35 36 38 40 41 42 44 46 53 65 85 116 135 144 146 150 152 152 153 161 168 173 180 196 209 216 217 217 214 212 211 214 204 189 178 180 176 167 159 155
234 231 226 222 216 208 201 194 181 162 137 111 85 68 60 58 53 45 36 31 36 44 48 46 41 38 38 36 35 35 34 34 35 36 41 46 52 58 62 65 81 112 133 144 156 165 165 161 166 171 177 180 183 185 185 185 188 195 205 213 211 195 171 140 118 106 104 106 113
227 221 215 209 204 203 205 203 190 170 149 127 98 80 74 73 64 49 36 36 46 54 57 55 50 48 48 47 43 39 36 35 35 39 47 59 66 73 80 86 98 115 128 138 148 159 164 162 164 170 174 174 171 171 172 174 179 187 195 186 161 142 123 106 96 93 97 109 119
221 213 205 201 200 205 210 209 195 170 147 134 115 103 101 99 86 67 51 49 58 67 73 73 65 62 63 62 55 46 38 32 29 35 50 70 82 93 101 109 118 125 132 138 143 148 150 150 155 161 166 166 165 164 164 162 155 142 127 119 118 116 111 105 102 103 111 121 126
214 204 198 198 202 209 214 208 189 159 139 129 118 117 122 122 105 84 71 61 57 64 81 86 78 76 80 78 65 49 36 26 20 29 49 72 83 92 103 112 118 123 128 135 139 141 141 139 141 148 155 158 157 154 147 140 132 125 120 117 116 114 112 110 112 116 120 124 121
190 163 156 172 200 211 214 189 161 135 126 125 123 129 139 136 87 83 83 74 60 48 56 71 77 85 94 89 70 43 27 23 23 37 60 74 82 92 101 109 114 119 123 128 132 135 136 136 137 142 150 156 151 144 138 133 127 123 120 119 117 115 114 115 117 119 120 120 117
80 60 55 46 38 27 40 92 102 99 102 108 116 137 325 10 22 48 80 91 88 70 61 71 85 99 105 99 74 36 22 39 56 71 77 79 84 94 105 111 113 117 125 132 136 138 138 139 143 151 159 160 151 142 135 130 126 123 122 121 119 117 117 117 118 118 119 118 116
291 347 14 19 18 17 19 29 35 41 47 48 31 10 24 45 34 44 91 112 104 96 89 93 107 113 109 97 88 67 50 53 73 85 87 86 94 115 129 130 129 132 139 147 151 150 147 147 150 156 157 152 145 138 135 131 129 127 125 123 120 119 119 118 118 118 117 116 115
274 304 324 337 346 356 4 6 3 3 8 16 28 57 82 73 71 118 149 139 117 101 101 126 148 153 143 107 106 94 80 74 91 97 99 106 128 147 153 151 151 151 151 152 151 149 147 147 148 148 145 141 137 135 134 133 131 129 127 125 123 122 121 121 120 118 116 113 109
267 279 285 286 291 297 327 5 0 359 6 24 47 89 102 103 131 166 167 150 131 134 162 174 168 162 155 142 128 110 99 102 116 120 122 130 140 145 148 149 152 153 152 150 148 145 143 140 138 135 132 130 130 131 132 131 130 129 128 127 126 124 123 122 119 116 112 106 100
259 263 266 266 258 243 62 38 21 16 24 46 70 97 123 142 158 164 160 149 144 149 157 157 151 146 142 138 131 123 119 123 126 127 129 130 126 123 123 128 132 136 138 141 140 138 134 130 127 124 123 122 123 125 126 127 127 127 126 124 121 118 115 112 110 108 105 102 98
245 236 215 203 152 111 99 89 64 50 55 76 104 127 142 150 153 150 145 143 144 144 141 135 132 130 129 129 127 128 129 129 128 125 122 118 112 108 107 110 109 110 112 118 123 124 122 119 118 117 117 118 119 120 121 123 124 123 121 117 113 108 103 99 97 97 98 99 99
201 174 162 161 158 157 156 152 141 133 128 125 131 136 138 137 136 135 134 134 134 130 125 122 122 123 123 122 122 124 126 125 121 115 110 105 103 101 101 101 100 98 99 102 107 112 114 114 114 115 115 116 116 117 118 119 119 118 116 113 110 107 103 98 94 92 92 93 95
182 180 176 172 163 159 154 149 142 137 133 130 129 127 126 125 125 127 129 127 126 125 124 124 123 121 119 116 115 115 115 112 107 102 97 94 91 90 90 90 90 90 92 95 99 104 109 112 114 116 117 117 116 116 115 114 114 113 112 111 110 108 106 103 99 94 91 89 89
195 190 180 170 165 160 154 148 142 136 130 126 124 121 120 122 124 126 125 124 124 124 124 122 120 116 113 110 108 107 105 102 100 98 97 95 94 92 89 87 86 87 89 94 97 101 107 111 115 119 120 120 117 115 112 109 108 108 108 108 108 107 106 104 102 98 95 93 92
198 187 173 163 164 160 154 147 142 136 132 128 125 124 125 129 130 128 126 126 125 125 123 121 118 115 113 111 110 110 109 109 108 108 107 106 104 102 99 95 93 93 95 98 100 102 106 111 116 120 122 121 117 113 109 107 104 103 103 103 103 103 102 100 98 96 95 96 96
190 173 156 156 160 156 153 151 147 143 140 136 132 132 136 138 136 133 131 131 130 128 125 123 122 121 120 118 118 119 118 117 116 114 112 109 107 104 102 100 99 100 102 104 104 105 107 110 114 118 120 120 116 113 110 109 107 105 103 101 99 98 96 95 95 96 96 95 96
180 167 160 167 164 160 158 158 155 151 146 143 140 142 144 143 140 137 135 134 132 129 127 126 127 127 125 124 124 123 122 120 118 115 113 110 107 105 104 103 103 104 105 107 107 107 107 108 109 111 113 113 113 111 109 108 106 104 101 98 95 94 94 96 99 99 97 93 92
183 180 179 178 173 168 165 163 159 155 151 147 144 146 147 145 142 139 137 135 133 130 129 130 130 129 127 126 125 124 122 120 118 116 113 111 109 108 107 107 107 107 108 110 110 111 111 110 108 107 106 105 104 102 101 101 101 100 100 99 99 100 101 102 101 98 94 92 90
193 192 187 180 173 169 167 165 162 158 154 150 148 149 149 146 142 140 139 137 135 134 134 134 133 131 129 127 125 123 122 121 119 117 115 113 112 111 111 110 110 110 111 112 113 115 115 113 109 105 101 98 96 94 94 95 97 100 103 105 107 108 108 104 99 94 92 90 89
200 198 189 179 172 169 168 166 162 159 156 153 151 151 149 145 141 140 140 141 140 137 136 135 134 133 132 130 127 125 124 122 119 117 116 116 115 114 112 111 110 111 113 114 116 117 116 111 105 100 96 94 92 91 92 95 98 102 106 108 109 107 105 101 97 95 94 93 93
200 196 187 177 171 168 167 165 161 158 155 153 152 151 149 146 143 142 142 144 144 142 139 138 136 133 132 130 129 127 124 122 120 119 118 118 116 115 113 112 111 113 114 116 118 117 113 107 101 98 96 94 93 93 95 97 100 102 104 104 103 100 98 96 96 97 100 104 106
195 190 182 175 170 167 166 164 161 159 156 153 151 151 150 149 146 144 144 147 150 149 147 145 142 138 136 135 132 129 127 126 124 123 122 122 120 119 117 115 115 115 116 118 117 114 109 104 101 98 96 94 93 94 95 97 98 99 99 97 95 93 91 90 92 93 98 104 110
191 185 178 173 170 167 165 164 162 160 157 153 150 149 150 150 148 147 149 155 160 160 156 153 148 144 141 140 138 135 132 131 130 129 129 128 127 124 121 119 118 117 116 116 113 109 104 101 98 96 95 94 94 95 96 97 97 97 95 93 91 89 88 86 87 89 92 96 99
191 184 178 173 170 168 166 165 164 162 158 153 150 148 147 145 145 148 158 168 169 165 159 154 149 146 144 143 142 139 136 135 133 133 134 134 131 126 122 119 117 115 113 112 109 104 100 96 94 93 94 95 96 97 97 97 96 94 92 90 88 86 85 85 87 90 92 95 96
193 188 181 175 171 169 169 168 167 163 159 155 150 145 141 139 144 155 166 174 175 170 162 156 152 150 149 146 143 140 138 136 135 135 135 133 129 125 122 119 118 116 113 109 103 99 95 92 91 91 92 94 95 96 95 94 93 91 90 87 85 84 84 85 88 92 95 97 97
195 191 186 180 176 174 173 172 170 166 160 153 147 142 140 145 155 166 176 185 187 177 167 160 156 154 150 145 141 138 136 136 136 135 134 131 128 125 123 121 120 118 114 109 101 96 92 91 91 91 91 91 90 90 89 89 89 88 86 85 83 82 82 84 88 93 98 101 100
199 196 192 188 183 180 178 176 173 167 158 152 147 145 149 158 170 181 193 208 202 186 172 164 158 152 146 141 138 137 138 139 139 137 134 131 127 125 123 121 119 117 115 112 106 99 95 91 91 91 90 88 85 83 82 81 83 83 83 83 83 82 81 82 86 93 101 105 105
203 201 198 194 190 186 183 180 175 165 156 151 151 153 159 169 180 196 212 221 207 186 172 163 155 149 144 141 142 142 143 143 142 138 134 131 128 126 123 121 119 117 117 118 114 107 100 93 89 88 87 84 80 77 75 74 75 79 81 83 83 83 82 81 82 90 100 109 112
203 203 200 197 194 190 186 181 173 162 154 154 158 163 169 178 189 204 213 212 195 177 166 159 152 147 145 145 147 149 149 147 144 140 137 134 132 130 128 126 124 123 125 127 127 120 107 94 85 82 80 76 73 70 68 66 69 74 79 80 81 83 84 81 79 82 93 108 121
Height
810 809 809 809 809 808 808 808 807 807 807 806 806 806 806 805 805 805 804 804 804 804 803 803 803 802 802 802 801 801 801 801 801 801 802 802 803 803 804 805 805 806 807 807 808 808 809 809 810 809 809 809 809 810 811 812 814 814 815 815 816 816 817 817 817 818 818 818 818
809 809 809 809 809 808 808 807 807 807 806 806 806 806 805 805 805 805 804 804 804 803 803 803 802 802 802 801 801 801 801 801 801 801 802 802 803 803 804 804 805 806 806 807 807 807 808 809 809 809 809 809 809 810 811 812 813 813 814 814 815 815 816 816 817 817 817 817 818
809 809 809 809 808 808 807 807 807 806 806 806 806 805 805 805 805 804 804 804 804 804 803 803 802 802 801 801 801 801 801 801 801 801 801 802 803 803 804 804 805 805 805 806 806 806 807 808 808 808 809 809 809 810 811 812 812 813 813 813 814 814 815 815 816 816 816 816 817
809 809 809 808 808 808 807 807 806 806 806 806 805 805 805 805 805 804 804 804 804 804 803 803 803 802 802 801 801 801 801 801 801 801 801 802 803 803 804 804 804 804 804 805 805 805 806 806 807 807 808 809 809 809 810 811 811 812 812 812 813 814 814 814 814 815 815 816 816
809 809 808 808 808 807 807 807 806 806 806 805 805 805 805 805 805 804 804 804 804 804 804 803 803 803 802 802 802 801 801 801 801 801 802 802 803 803 803 804 804 804 804 804 805 805 805 805 806 807 808 808 809 809 809 810 810 811 811 811 812 813 813 814 814 814 815 815 816
809 808 808 808 808 807 807 807 806 806 806 805 805 805 805 805 805 804 804 804 804 804 804 804 804 804 803 803 802 802 802 802 802 802 802 802 803 803 803 803 804 804 804 804 805 806 805 805 806 807 807 808 808 809 809 809 810 810 810 811 811 812 813 813 814 814 815 815 815
808 808 808 808 808 807 807 807 806 806 806 806 805 805 805 805 805 805 805 805 804 804 804 804 804 804 804 804 803 803 803 803 803 803 803 803 803 803 804 804 804 804 804 805 806 806 806 805 806 807 807 808 809 809 810 810 810 810 810 811 811 812 813 814 814 814 815 815 816
808 808 808 808 808 807 807 807 807 806 806 806 806 806 805 805 805 805 805 805 805 804 804 804 804 804 804 804 804 803 803 803 803 803 804 804 804 804 804 804 804 804 805 805 806 806 805 805 806 807 808 808 809 809 810 811 811 811 811 811 812 813 814 814 814 815 815 815 816
808 808 808 808 807 807 807 807 807 807 806 806 806 806 806 806 805 805 805 805 805 805 804 804 804 804 804 804 804 804 804 804 804 804 804 804 804 804 804 804 804 804 805 805 806 806 806 806 807 808 808 809 809 810 810 810 811 811 811 812 813 813 814 814 814 814 815 815 815
808 808 808 808 807 807 807 807 807 807 806 806 806 806 806 806 806 805 805 805 805 805 805 804 804 804 804 804 804 804 804 804 804 804 804 804 804 804 804 804 804 804 805 805 805 806 806 807 808 808 809 809 809 809 810 810 810 811 812 812 813 813 813 814 814 814 814 815 815
807 807 807 807 807 807 807 807 807 807 806 806 806 806 806 806 805 805 805 805 805 805 804 804 804 804 804 804 804 804 804 804 804 804 804 804 804 804 804 804 804 804 804 805 805 806 806 807 808 808 809 809 809 809 810 810 810 811 811 812 812 813 813 813 814 814 814 814 815
807 807 807 807 807 807 807 807 807 807 806 806 806 806 806 806 805 805 805 805 805 804 804 804 804 804 804 804 804 804 804 804 804 804 804 804 804 804 804 804 804 804 804 805 805 806 806 807 808 808 808 809 809 809 810 810 810 811 811 812 812 813 813 813 814 814 814 815 815
806 807 807 807 807 807 807 807 807 806 806 806 806 806 806 806 805 805 805 805 805 804 804 804 804 804 804 804 804 804 804 804 804 804 804 804 804 804 804 804 804 804 805 805 805 806 806 807 807 808 808 809 809 809 809 810 810 811 811 812 812 813 813 814 814 814 814 815 815
806 806 806 806 806 806 806 806 806 806 806 806 806 806 806 806 806 805 805 805 805 805 805 804 804 804 804 804 804 804 804 804 804 804 804 804 804 804 804 804 804 805 805 805 806 806 806 807 807 808 808 809 809 809 809 810 810 811 811 812 812 813 813 814 814 814 814 815 815
806 806 806 806 806 806 806 806 806 806 806 806 806 806 806 806 806 805 805 805 805 805 805 805 804 804 804 804 804 804 804 804 804 804 804 804 804 804 804 804 805 805 806 806 806 807 807 807 807 808 808 809 809 809 809 810 810 811 811 812 812 813 813 814 814 814 814 815 815
806 806 806 806 806 806 806 805 805 805 805 805 806 806 806 805 805 805 805 805 805 805 805 805 805 804 805 805 805 804 804 805 805 805 804 804 805 805 805 805 805 806 806 806 807 807 807 808 808 808 809 809 809 809 810 810 810 811 811 812 812 813 813 814 814 814 814 815 815
806 806 805 805 805 805 805 805 805 805 805 805 805 805 805 805 805 805 805 805 805 805 805 804 804 805 805 805 805 805 805 805 805 805 805 805 805 805 805 805 806 806 806 807 807 807 808 808 808 809 809 809 809 809 810 810 810 811 811 812 812 813 813 814 814 814 814 815 815
805 805 805 805 805 805 805 805 805 805 805 805 805 805 805 805 805 805 805 805 805 805 804 804 804 804 805 805 805 805 805 805 805 805 805 805 805 805 805 806 806 806 807 807 807 807 808 808 808 809 809 809 809 809 810 810 810 811 811 812 812 813 813 814 814 814 815 815 815
805 805 805 805 805 805 805 805 805 805 805 805 805 805 804 804 804 804 804 804 804 804 804 804 804 804 804 805 805 805 805 805 805 805 805 805 805 805 805 806 806 806 806 807 807 807 808 808 808 808 809 809 809 809 810 810 810 811 811 812 812 813 813 814 814 815 815 815 816
805 805 805 805 805 805 805 805 805 805 805 804 804 804 804 804 804 804 804 804 804 804 804 804 804 804 804 804 804 804 805 805 805 805 805 805 805 805 805 805 806 806 806 806 807 807 807 807 808 808 808 809 809 809 810 810 811 811 812 812 813 813 814 814 814 815 815 816 816
805 805 805 805 805 805 804 804 804 804 804 804 804 804 804 804 804 804 804 804 804 804 804 804 804 804 804 804 804 804 804 805 805 805 805 805 805 805 805 805 805 806 806 806 806 807 807 807 808 808 808 809 809 810 810 810 811 811 812 812 813 814 814 814 815 815 816 816 817
804 804 804 804 804 804 804 804 804 804 804 804 804 804 804 804 804 804 804 804 804 804 804 804 804 804 804 804 804 804 804 805 805 805 805 805 805 805 805 805 805 806 806 806 807 807 807 807 808 808 809 809 809 810 810 811 811 812 812 813 813 814 814 815 816 816 816 817 817
804 804 804 804 804 804 804 804 804 804 804 804 804 804 804 804 804 804 804 804 804 804 804 804 804 804 804 804 804 804 804 804 805 805 805 805 805 805 806 806 806 806 806 807 807 807 807 808 808 809 809 809 809 810 811 811 811 812 812 813 814 814 815 816 816 817 817 817 817
804 804 804 804 804 804 804 804 804 804 804 804 804 804 804 804 804 804 804 804 804 804 804 804 804 804 804 804 804 804 804 805 805 805 805 805 805 806 806 806 806 807 807 807 807 808 808 808 808 809 809 809 810 810 811 812 812 812 813 814 814 815 816 816 817 817 817 817 817
804 804 804 804 804 804 804 804 804 804 804 804 804 804 804 804 804 804 804 804 804 804 805 805 805 805 805 805 805 805 805 805 805 805 806 806 806 806 807 807 807 807 808 808 808 809 809 809 809 809 810 810 811 811 812 812 813 813 814 814 815 815 816 816 817 817 817 817 818
803 804 804 804 804 804 804 804 804 804 804 804 804 805 805 805 805 805 805 805 805 805 805 805 805 805 805 806 806 806 806 806 806 807 807 807 807 808 808 808 808 808 809 809 809 809 809 810 810 810 810 811 811 812 812 813 813 814 814 815 815 815 816 816 817 817 817 818 818
803 803 804 804 804 804 804 804 804 804 804 805 805 805 805 805 805 805 805 805 805 805 806 806 806 806 806 806 807 807 807 807 807 807 808 808 808 808 809 809 809 809 810 810 810 810 810 810 811 811 811 811 812 812 813 813 814 814 815 815 815 816 816 816 817 817 818 818 819
803 803 804 804 804 804 804 804 804 804 805 805 805 805 805 805 805 805 805 806 806 806 806 806 806 806 807 807 807 808 808 808 808 808 808 808 809 809 809 809 809 810 811 811 811 811 811 811 812 812 812 812 812 813 813 814 814 815 815 815 816 816 816 817 817 818 818 819 819
803 803 804 804 804 804 804 804 804 804 805 805 805 805 806 806 806 806 806 806 806 806 806 807 807 807 807 808 808 808 808 809 809 809 809 809 809 809 810 810 810 811 811 812 812 812 812 812 813 813 813 813 813 813 814 814 814 815 815 815 816 816 817 817 818 818 818 819 819
803 803 803 804 804 804 804 804 804 804 805 805 805 805 806 806 806 806 806 806 807 807 807 807 807 808 808 808 809 809 809 809 809 809 809 809 810 810 810 811 811 812 812 813 813 813 813 813 814 814 814 814 814 814 814 814 814 815 815 816 816 817 817 818 818 818 818 819 819
803 803 803 803 804 804 804 804 804 805 805 805 805 806 806 806 806 806 807 807 807 808 808 808 808 809 809 809 809 809 809 809 809 810 810 810 810 811 811 811 812 813 813 814 814 814 814 814 814 814 814 814 814 814 814 814 815 815 815 816 817 817 817 818 818 818 819 819 819
802 803 803 803 804 804 804 804 804 805 805 805 805 806 806 806 807 807 807 808 808 808 808 809 809 809 809 809 809 810 810 810 810 810 810 811 811 811 812 812 813 813 814 814 814 814 814 814 814 814 814 814 814 814 814 815 815 815 816 816 817 817 818 818 818 818 819 819 819
802 802 803 803 803 804 804 804 804 805 805 805 805 806 806 806 807 807 808 808 808 809 809 809 809 810 810 810 810 810 810 811 811 811 811 812 812 812 813 813 814 814 814 815 815 815 815 814 814 814 814 814 814 814 815 815 816 816 816 817 817 818 818 818 818 819 819 819 819
802 802 803 803 803 804 804 804 804 805 805 805 805 806 806 807 807 807 808 808 809 809 809 809 810 810 810 810 811 811 811 811 811 812 812 812 812 813 813 814 814 815 815 815 815 815 815 814 814 814 814 815 815 815 815 816 816 816 817 817 817 818 818 818 818 819 819 819 819
802 802 802 803 803 803 804 804 804 804 805 805 805 806 806 807 807 807 808 808 809 809 809 810 810 810 811 811 811 811 811 812 812 812 813 813 813 813 814 814 815 815 815 815 815 815 815 815 815 815 815 815 815 816 816 816 816 817 817 817 818 818 818 818 819 819 819 819 819
801 802 802 802 803 803 803 804 804 804 805 805 805 806 806 807 807 808 808 809 809 809 809 810 810 810 811 811 811 812 812 812 812 813 813 814 814 814 814 814 815 816 816 816 815 815 815 815 815 815 815 816 816 816 816 817 817 817 817 818 818 818 818 819 819 819 819 819 819
801 801 802 802 802 803 803 804 804 804 805 805 805 806 806 807 807 808 808 809 809 809 809 810 810 810 811 811 811 812 812 813 813 814 814 814 814 814 814 815 815 816 816 816 816 816 815 815 816 816 816 816 816 817 817 817 817 818 818 818 818 818 819 819 819 819 819 819 820
801 801 801 802 802 802 803 803 804 804 804 805 805 806 806 807 808 808 809 809 809 809 809 810 810 811 811 811 812 812 813 813 814 814 814 815 815 815 815 815 815 816 816 816 816 816 816 816 816 817 817 817 817 817 817 817 818 818 818 818 819 819 819 819 819 819 820 820 820
801 801 801 801 802 802 803 803 804 804 804 805 805 806 806 807 808 808 809 809 809 809 809 810 810 811 811 812 812 813 813 814 814 814 815 815 815 816 816 816 816 816 816 817 817 817 817 817 817 817 817 817 817 818 818 818 818 818 819 819 819 819 819 819 820 820 820 820 820
800 801 801 801 802 802 802 803 804 804 804 805 805 806 807 807 808 808 809 809 809 809 809 810 810 811 812 812 813 813 814 814 814 815 815 815 816 816 816 816 816 816 817 818 818 818 818 818 818 818 818 818 818 818 818 818 818 819 819 819 819 819 819 820 820 820 820 820 820
800 800 801 801 801 802 802 803 804 804 804 805 806 806 807 807 808 808 808 809 809 809 809 810 810 811 812 812 813 814 814 814 815 815 815 816 816 816 816 816 816 817 817 818 818 818 818 818 818 818 818 818 818 818 818 818 819 819 819 819 819 819 820 820 820 820 820 820 820